Regional Weather Roundup
Issued by NWS

Home | Current Version | Previous Version | Graphics & Text | Print | Product List | Glossary On
Versions: 1 2 3 4 5 6 7 8 9 10 11 12 13 14 15 16 17 18 19 20 21 22 23 24 25 26 27 28 29 30 31 32 33 34 35 36 37 38 39 40 41 42 43 44 45 46 47 48 49 50
000
ASUS43 KDTX 041210
RWRMI
MICHIGAN HOURLY REGIONAL WEATHER ROUNDUP
NATIONAL WEATHER SERVICE DETROIT/PONTIAC MI
800 AM EDT FRI SEP 04 2015

NOTE: "FAIR" INDICATES FEW OR NO CLOUDS BELOW 12,000 FEET WITH NO
SIGNIFICANT WEATHER AND/OR OBSTRUCTION TO VISIBILITY.

MIZ047>049-052>055-059>063-066>070-074>076-081>083-041300-
SOUTHEAST LOWER MICHIGAN

CITY           SKY/WX    TMP DP  RH WIND       PRES   REMARKS
ADRIAN         PTCLDY    66  64  93 CALM      30.01R
6HR MIN TEMP:  64; 6HR MAX TEMP:  70;

ALMA           FOG       67  67 100 NE6       29.99R VSB 1/2
ANN ARBOR      PTCLDY    66  65  96 CALM      30.00R FOG
BAD AXE        HVY RAIN  68  67  98 SE5       30.03R
6HR MIN TEMP:  67; 6HR MAX TEMP:  68;

DETROIT CITY   PTSUNNY   70  67  90 N3        30.01R
6HR MIN TEMP:  69; 6HR MAX TEMP:  70; 6HR PCP:  0.04;

DETROIT        MOCLDY    70  66  87 SE6       30.00R
6HR MIN TEMP:  69; 6HR MAX TEMP:  70; 6HR PCP: TRACE;

FLINT          CLOUDY    71  66  84 S5        30.00R
6HR MIN TEMP:  69; 6HR MAX TEMP:  71;

GROSSE ILE     SUNNY     72  66  83 S12       29.98R
HILLSDALE      CLOUDY    69  69 100 CALM      30.00S FOG
HOWELL         CLOUDY    67  66  96 S3        30.00R FOG

CITY           SKY/WX    TMP DP  RH WIND       PRES   REMARKS
JACKSON        CLOUDY    69  67  93 SW3       30.00R FOG
6HR MIN TEMP:  68; 6HR MAX TEMP:  70;

LAMBERTVILLE   CLEAR     68  65  90 S3        29.99R
6HR MIN TEMP:  67; 6HR MAX TEMP:  69;

LANSING        CLOUDY    68  66  93 SW6       29.99R FOG
6HR MIN TEMP:  68; 6HR MAX TEMP:  69; 6HR PCP: TRACE;

LAPEER         NOT AVBL
MASON          CLOUDY    69  66  91 CALM      29.99R FOG
MONROE         CLEAR     70  65  86 S6        29.99R
6HR MIN TEMP:  68; 6HR MAX TEMP:  70; 6HR PCP:  0.01;

MT. CLEMENS    PTSUNNY   70  68  95 E6        30.00R
6HR MIN TEMP:  65; 6HR MAX TEMP:  70;

PONTIAC        MOCLDY    69  67  93 S6        30.00R
6HR MIN TEMP:  68; 6HR MAX TEMP:  69;

PORT HOPE        N/A     70  68  93 SE7       30.01R
6HR MIN TEMP:  70; 6HR MAX TEMP:  71; 6HR PCP:  0.03;

PORT HURON     CLOUDY    68  68 100 SE3       30.03R FOG
TRI CITIES     FOG       69  66  90 NE5       30.00R VSB 1
6HR MIN TEMP:  68; 6HR MAX TEMP:  69;

YPSILANTI      PTCLDY    71  67  87 CALM      30.00R
6HR MIN TEMP:  71; 6HR MAX TEMP:  72; 6HR PCP:  0.01;

$$
MIZ043>046-050>051-056>058-064>065-071>073-077>080-041300-
SOUTHWEST LOWER MICHIGAN

CITY           SKY/WX    TMP DP  RH WIND       PRES   REMARKS
BATTLE CREEK   CLOUDY    69  66  90 W7        30.00R FOG
6HR MIN TEMP:  68; 6HR MAX TEMP:  71;

BENTON HARBOR  CLOUDY    69  66  90 CALM      29.99S
6HR MIN TEMP:  67; 6HR MAX TEMP:  70;

BIG RAPIDS     CLOUDY    66  66  99 CALM      29.99R FOG
6HR MIN TEMP:  66; 6HR MAX TEMP:  67;

COLDWATER      CLOUDY    67  67  98 NW3       30.00R FOG
6HR MIN TEMP:  67; 6HR MAX TEMP:  73;

HOLLAND        CLOUDY    69  67  93 CALM      30.00R
6HR MIN TEMP:  66; 6HR MAX TEMP:  70;

GRAND RAPIDS   CLOUDY    68  67  96 W7        29.99R FOG
6HR MIN TEMP:  68; 6HR MAX TEMP:  69;

KALAMAZOO      CLOUDY    69  64  84 W6        30.00R HAZE
6HR MIN TEMP:  68; 6HR MAX TEMP:  70;

MARSHALL       CLOUDY    67  65  93 CALM      29.99S FOG
6HR MIN TEMP:  67; 6HR MAX TEMP:  71;

MUSKEGON       CLOUDY    71  65  81 NE3       29.99R
6HR MIN TEMP:  69; 6HR MAX TEMP:  72;

$$
MIZ016>042-041300-
NORTHERN LOWER MICHIGAN

CITY           SKY/WX    TMP DP  RH WIND       PRES   REMARKS
ALPENA         FOG       67  67 100 E8        30.04R VSB 1/2
6HR MIN TEMP:  67; 6HR MAX TEMP:  68; 6HR PCP: TRACE;

BEAVER ISLAND  PTCLDY    65  60  81 E6        30.04S
6HR MIN TEMP:  65; 6HR MAX TEMP:  67;

BELLAIRE       MOCLDY    64  63  95 CALM      30.02R FOG
6HR MIN TEMP:  64; 6HR MAX TEMP:  67;

CADILLAC       CLOUDY    66  65  96 NE6       30.02R
CHARLEVOIX     CLOUDY    67  63  88 NE7       30.05R
6HR MIN TEMP:  67; 6HR MAX TEMP:  69;

FRANKFORT      MOSUNNY   67  66  94 NE3       30.00R
GAYLORD        CLOUDY    65  65 100 E3        30.04R FOG
6HR MIN TEMP:  65; 6HR MAX TEMP:  66;

GRAYLING       CLOUDY    65  64  99 E8        30.03R FOG
6HR MIN TEMP:  64; 6HR MAX TEMP:  65;

HARBOR SPRINGS CLOUDY    66  60  81 NE7       30.03R
HOUGHTON LAKE  CLOUDY    65  64  97 NE7       30.02R FOG
6HR MIN TEMP:  65; 6HR MAX TEMP:  66; 6HR PCP: TRACE;

MANISTEE       CLOUDY    66  63  88 CALM      30.00R
OSCODA         DRIZZLE   69  68  98 E5        30.01S
6HR MIN TEMP:  67; 6HR MAX TEMP:  69;

PELLSTON       PTCLDY    65  61  87 NE3       30.05R
6HR MIN TEMP:  62; 6HR MAX TEMP:  66;

TRAVERSE CITY  CLOUDY    69  66  90 NE3       30.00R
6HR MIN TEMP:  68; 6HR MAX TEMP:  70;

$$
MIZ007>008-015-041300-
EASTERN UPPER MICHIGAN

CITY           SKY/WX    TMP DP  RH WIND       PRES   REMARKS
KINROSS        PTCLDY    64  57  77 E8        30.07R
6HR MIN TEMP:  63; 6HR MAX TEMP:  66;

MACKINAC ISLAN PTCLDY    64  58  78 NE12      30.05S
NEWBERRY       CLEAR     61  59  92 NE5       30.07R
6HR MIN TEMP:  59; 6HR MAX TEMP:  64;

S. S. MARIE    PTCLDY    66  55  67 NE7       30.07R
6HR MIN TEMP:  63; 6HR MAX TEMP:  68;

$$
MIZ004>006-011>014-085-041300-
CENTRAL UPPER MICHIGAN

CITY           SKY/WX    TMP DP  RH WIND       PRES   REMARKS
MANISTIQUE     CLEAR     63  58  83 NE6       30.04S
6HR MIN TEMP:  58; 6HR MAX TEMP:  64;

ESCANABA       CLEAR     64  61  88 NE6       30.02R
6HR MIN TEMP:  61; 6HR MAX TEMP:  64;

MENOMINEE      CLEAR     63  57  82 NE6       30.01S
6HR MIN TEMP:  61; 6HR MAX TEMP:  64;

SAWYER-GWINN   CLEAR     63  57  82 E3        30.06F
$$
MIZ001>003-009>011-084-041300-
WESTERN UPPER MICHIGAN

CITY           SKY/WX    TMP DP  RH WIND       PRES   REMARKS
IRON MOUNTAIN  CLEAR     58  57  97 NW3       30.05R
6HR MIN TEMP:  57; 6HR MAX TEMP:  62;

HOUGHTON       CLEAR     59  56  89 NE3       30.05S
6HR MIN TEMP:  56; 6HR MAX TEMP:  62;

COPPER HARBOR    N/A     66  57  72 CALM      30.04S
6HR MIN TEMP:  63; 6HR MAX TEMP:  66;

IRONWOOD       CLEAR     61  61 100 E7        30.01S
6HR MIN TEMP:  59; 6HR MAX TEMP:  63;

$$

ABBREVIATIONS USED IN REMARKS
   TC - TEMPERATURE IN CELSIUS
  WCI - WIND CHILL INDEX
   HX - HEAT INDEX
  VSB - VISIBILITY




USA.gov is the U.S. government's official web portal to all federal, state and local government web resources and services.